M3NIC-5 Weather Reports


Display with metric or nautical units.
time (UTC)temp
F
wind
direction
speed
MPH
gust
MPH
rain 1hr
in
rain 24hr
in
rain mn
in
humidity
%
barometer
mb
20260510070004 51 54 3.0 14.0 0.00 0.00 0.00 83 1017.4
20260510053003 51 42 3.0 12.0 0.00 0.00 0.00 85 1017.5
20260510050003 51 21 3.0 10.0 0.00 0.00 0.00 85 1017.5
20260510030005 52 19 2.0 7.0 0.00 0.00 0.00 77 1017.5
20260510023005 52 328 0.0 6.0 0.00 0.00 0.00 76 1017.7
20260510013004 52 13 1.0 6.0 0.00 0.00 0.00 75 1018.0
20260510010005 52 355 1.0 9.0 0.00 0.00 0.00 74 1017.9
20260510003004 52 7 2.0 7.0 0.00 0.00 0.00 72 1017.8
20260509233004 53 89 2.0 8.0 0.00 0.00 0.00 67 1018.2
20260509230004 53 73 2.0 9.0 0.00 0.00 0.00 64 1018.2
20260509210005 54 32 1.0 5.0 0.00 0.00 0.00 60 1018.1
20260509203005 55 58 0.0 10.0 0.00 0.00 0.00 57 1017.9
20260509200004 57 44 1.0 7.0 0.00 0.00 0.00 57 1017.6
20260509193004 59 25 2.0 13.0 0.00 0.00 0.00 54 1017.4
20260509180005 64 82 3.0 16.0 0.00 0.00 0.00 53 1016.9
20260509170004 66 35 7.0 15.0 0.00 0.00 0.00 48 1016.4
20260509130004 68 101 9.0 23.0 0.00 0.00 0.00 48 1017.4
20260509120005 68 88 9.0 18.0 0.00 0.00 0.00 48 1017.8
20260509103003 66 99 9.0 17.0 0.00 0.00 0.00 49 1018.5
20260509100002 66 101 5.0 15.0 0.00 0.00 0.00 55 1018.6
20260509093004 66 77 7.0 14.0 0.00 0.00 0.00 55 1018.7
20260509090004 65 112 5.0 13.0 0.00 0.00 0.00 59 1018.8
20260509080005 61 59 3.0 8.0 0.00 0.00 0.00 67 1019.0